AAL73 KLAX-YSSY

Flight info

Callsign AAL73
Flight time N/A
Altitude 30000
Route SUMMR2 FICKY B581 AFONE/N0502F320 B581 WINTY/N0501F340 B581 GOMIK/N0496F360 B581 NN G224 NILAX DCT 25S170E/N0487F380 29S165E 2954S16300E DCT LHI H258 RIKNI N774 MARLN
Aircraft B77W/H-SDE1E2E3FGHIJ2J3J4J5M1RWXY/LB1D1

Departure

Time 2026-04-26 04:01
Airport Los Angeles International Airport (KLAX)

Arrival

Time N/A
Airport Sydney Kingsford Smith International Airport (YSSY)
Time Latitude Longitude Altitude Speed Heading
2026-04-26 02:51 33.94023 -118.40921 100 ft 0 kts 264°
2026-04-26 03:41 33.94025 -118.40908 98 ft 3 kts 261°
2026-04-26 03:41 33.94027 -118.40888 102 ft 3 kts 257°
2026-04-26 03:42 33.94033 -118.40866 99 ft 3 kts 242°
2026-04-26 03:42 33.94042 -118.40848 101 ft 3 kts 220°
2026-04-26 03:42 33.94056 -118.40837 98 ft 3 kts 196°
2026-04-26 03:42 33.94074 -118.40833 99 ft 3 kts 178°
2026-04-26 03:43 33.94094 -118.40836 99 ft 3 kts 172°
2026-04-26 03:43 33.94107 -118.40838 99 ft 1 kts 173°
2026-04-26 03:43 33.94110 -118.40838 99 ft 0 kts 173°
2026-04-26 03:52 33.94074 -118.40833 99 ft 9 kts 173°
2026-04-26 03:52 33.94011 -118.40824 100 ft 9 kts 173°
2026-04-26 03:52 33.93939 -118.40814 101 ft 11 kts 175°
2026-04-26 03:53 33.93879 -118.40861 103 ft 12 kts 250°
2026-04-26 03:53 33.93862 -118.40982 104 ft 16 kts 263°
2026-04-26 03:53 33.93855 -118.41118 105 ft 16 kts 285°
2026-04-26 03:53 33.93955 -118.41174 102 ft 17 kts 351°
2026-04-26 03:54 33.94046 -118.41242 102 ft 17 kts 295°
2026-04-26 03:54 33.94145 -118.41299 103 ft 17 kts 353°
2026-04-26 03:54 33.94262 -118.41320 100 ft 17 kts 352°
2026-04-26 03:54 33.94378 -118.41337 100 ft 17 kts 354°
2026-04-26 03:55 33.94493 -118.41354 101 ft 17 kts 352°
2026-04-26 03:55 33.94610 -118.41371 101 ft 17 kts 353°
2026-04-26 03:55 33.94719 -118.41388 104 ft 14 kts 355°
2026-04-26 03:55 33.94784 -118.41322 104 ft 14 kts 74°
2026-04-26 03:56 33.94801 -118.41210 107 ft 14 kts 82°
2026-04-26 03:56 33.94813 -118.41095 106 ft 14 kts 83°
2026-04-26 03:56 33.94823 -118.40981 106 ft 14 kts 84°
2026-04-26 03:56 33.94835 -118.40868 105 ft 14 kts 83°
2026-04-26 03:57 33.94847 -118.40754 106 ft 14 kts 83°
2026-04-26 03:57 33.94859 -118.40640 105 ft 14 kts 82°
2026-04-26 03:57 33.94871 -118.40526 106 ft 14 kts 82°
2026-04-26 03:57 33.94883 -118.40413 105 ft 14 kts 83°
2026-04-26 03:58 33.94895 -118.40299 104 ft 14 kts 83°
2026-04-26 03:58 33.94906 -118.40185 106 ft 14 kts 83°
2026-04-26 03:58 33.94918 -118.40071 107 ft 14 kts 83°
2026-04-26 03:58 33.94929 -118.39970 104 ft 8 kts 77°
2026-04-26 03:59 33.94939 -118.39946 105 ft 1 kts 53°
2026-04-26 03:59 33.94940 -118.39945 105 ft 0 kts 49°
2026-04-26 03:59 33.94969 -118.39924 109 ft 8 kts 20°
2026-04-26 04:00 33.95018 -118.39922 111 ft 4 kts 354°
2026-04-26 04:00 33.95039 -118.39946 111 ft 5 kts 280°
2026-04-26 04:00 33.95035 -118.40014 110 ft 16 kts 265°
2026-04-26 04:00 33.94996 -118.40399 113 ft 85 kts 263°
2026-04-26 04:01 33.94890 -118.41426 111 ft 160 kts 263°
2026-04-26 04:01 33.94726 -118.42985 336 ft 199 kts 261°
2026-04-26 04:01 33.94548 -118.44603 1389 ft 193 kts 263°
2026-04-26 04:01 33.94386 -118.46225 2124 ft 203 kts 264°
2026-04-26 04:02 33.94299 -118.47962 2579 ft 210 kts 268°
2026-04-26 04:02 33.94249 -118.49761 2877 ft 220 kts 268°
2026-04-26 04:02 33.94183 -118.51660 3187 ft 232 kts 265°
2026-04-26 04:02 33.94028 -118.53679 3379 ft 251 kts 264°
2026-04-26 04:03 33.93852 -118.55803 3889 ft 257 kts 264°
2026-04-26 04:03 33.93676 -118.57962 4471 ft 260 kts 265°
2026-04-26 04:03 33.93505 -118.60106 5148 ft 261 kts 265°
2026-04-26 04:03 33.93333 -118.62291 5817 ft 262 kts 264°
2026-04-26 04:04 33.93160 -118.64477 6475 ft 263 kts 264°
2026-04-26 04:04 33.92988 -118.66683 7075 ft 266 kts 264°
2026-04-26 04:04 33.92816 -118.68908 7683 ft 267 kts 264°
2026-04-26 04:04 33.92643 -118.71130 8337 ft 266 kts 264°
2026-04-26 04:05 33.92469 -118.73372 8859 ft 272 kts 264°
2026-04-26 04:05 33.92292 -118.75655 9424 ft 274 kts 263°
2026-04-26 04:05 33.92112 -118.77948 10018 ft 276 kts 263°
2026-04-26 04:05 33.91928 -118.80285 10363 ft 288 kts 263°
2026-04-26 04:06 33.91733 -118.82763 10499 ft 306 kts 264°
2026-04-26 04:06 33.91649 -118.85371 10640 ft 325 kts 270°
2026-04-26 04:06 33.91746 -118.88172 10841 ft 342 kts 272°
2026-04-26 04:06 33.91888 -118.91065 11311 ft 350 kts 272°
2026-04-26 04:07 33.92008 -118.94027 11874 ft 356 kts 271°
2026-04-26 04:07 33.92106 -118.97023 12543 ft 359 kts 271°
2026-04-26 04:07 33.92185 -119.00025 13213 ft 358 kts 269°
2026-04-26 04:07 33.91825 -119.03003 13672 ft 365 kts 250°
2026-04-26 04:08 33.90812 -119.05815 14168 ft 367 kts 246°
2026-04-26 04:08 33.89755 -119.08619 14779 ft 369 kts 246°
2026-04-26 04:08 33.88708 -119.11437 15463 ft 368 kts 246°
2026-04-26 04:08 33.87670 -119.14258 16094 ft 370 kts 247°
2026-04-26 04:09 33.86627 -119.17106 16697 ft 373 kts 247°
2026-04-26 04:09 33.85583 -119.19966 17299 ft 375 kts 247°
2026-04-26 04:09 33.84529 -119.22859 17895 ft 377 kts 246°
2026-04-26 04:09 33.83471 -119.25760 18452 ft 380 kts 246°
2026-04-26 04:10 33.82419 -119.28640 18969 ft 382 kts 246°
2026-04-26 04:10 33.81300 -119.31542 19478 ft 384 kts 242°
2026-04-26 04:10 33.79810 -119.34228 19926 ft 388 kts 233°
2026-04-26 04:10 33.78037 -119.36694 20439 ft 391 kts 228°
2026-04-26 04:11 33.75993 -119.38888 20945 ft 396 kts 221°
2026-04-26 04:11 33.73817 -119.40930 21420 ft 398 kts 221°
2026-04-26 04:11 33.71613 -119.42968 21883 ft 401 kts 221°
2026-04-26 04:11 33.69390 -119.45017 22348 ft 403 kts 221°
2026-04-26 04:12 33.67163 -119.47075 22829 ft 405 kts 221°
2026-04-26 04:12 33.64927 -119.49150 23294 ft 408 kts 221°
2026-04-26 04:12 33.62680 -119.51242 23711 ft 410 kts 221°
2026-04-26 04:12 33.60422 -119.53347 24098 ft 411 kts 221°
2026-04-26 04:13 33.58924 -119.54745 24363 ft 412 kts 221°
2026-04-26 04:13 33.55895 -119.57573 24902 ft 413 kts 221°
2026-04-26 04:13 33.54390 -119.58977 25160 ft 414 kts 221°
2026-04-26 04:13 33.51373 -119.61793 25625 ft 417 kts 221°
2026-04-26 04:14 33.49076 -119.63934 25997 ft 418 kts 221°
2026-04-26 04:14 33.47523 -119.65381 26213 ft 419 kts 221°
2026-04-26 04:14 33.45214 -119.67531 26574 ft 421 kts 221°
2026-04-26 04:14 33.42895 -119.69689 26904 ft 422 kts 222°
2026-04-26 04:15 33.40602 -119.71822 27248 ft 424 kts 222°
2026-04-26 04:15 33.38269 -119.73989 27582 ft 425 kts 222°
2026-04-26 04:15 33.35925 -119.76166 27893 ft 427 kts 222°
2026-04-26 04:15 33.33569 -119.78352 28192 ft 428 kts 222°
2026-04-26 04:16 33.31210 -119.80539 28492 ft 430 kts 222°
2026-04-26 04:16 33.28844 -119.82731 28788 ft 431 kts 222°
2026-04-26 04:16 33.26470 -119.84929 29060 ft 432 kts 222°
2026-04-26 04:16 33.24089 -119.87131 29308 ft 433 kts 222°
2026-04-26 04:17 33.21696 -119.89344 29565 ft 435 kts 222°
2026-04-26 04:17 33.19301 -119.91557 29809 ft 435 kts 222°
2026-04-26 04:17 33.16890 -119.93784 29897 ft 438 kts 222°
2026-04-26 04:18 33.12070 -119.98228 29972 ft 438 kts 222°
2026-04-26 04:18 33.07253 -120.02663 29986 ft 437 kts 222°
2026-04-26 04:19 33.02434 -120.07095 29975 ft 437 kts 222°
2026-04-26 04:19 32.97653 -120.11486 29982 ft 436 kts 222°
2026-04-26 04:20 32.92850 -120.15890 29979 ft 435 kts 222°
2026-04-26 04:20 32.88043 -120.20293 29986 ft 436 kts 222°
2026-04-26 04:21 32.83233 -120.24692 29983 ft 436 kts 223°
2026-04-26 04:21 32.78425 -120.29083 29987 ft 435 kts 223°
2026-04-26 04:22 32.73625 -120.33461 29981 ft 434 kts 223°
2026-04-26 04:22 32.68869 -120.37793 29982 ft 433 kts 223°
2026-04-26 04:23 32.64079 -120.42152 29983 ft 433 kts 223°
2026-04-26 04:23 32.59296 -120.46496 30004 ft 433 kts 223°
2026-04-26 04:24 32.54539 -120.50812 29995 ft 432 kts 223°
2026-04-26 04:24 32.49759 -120.55146 29994 ft 432 kts 223°
2026-04-26 04:25 32.44987 -120.59469 29990 ft 432 kts 223°
2026-04-26 04:25 32.40198 -120.63801 29996 ft 432 kts 223°
2026-04-26 04:26 32.35421 -120.68117 29995 ft 432 kts 223°
2026-04-26 04:26 32.30675 -120.72398 30000 ft 431 kts 223°
2026-04-26 04:27 32.25896 -120.76703 29992 ft 431 kts 223°
2026-04-26 04:27 32.21119 -120.81001 29999 ft 431 kts 223°
2026-04-26 04:28 32.16343 -120.85292 29998 ft 431 kts 223°
2026-04-26 04:28 32.11600 -120.89548 30003 ft 431 kts 223°
2026-04-26 04:29 32.06835 -120.93818 30004 ft 430 kts 223°
2026-04-26 04:29 32.02059 -120.98091 30180 ft 428 kts 224°
2026-04-26 04:30 31.97351 -121.02293 30042 ft 423 kts 224°
2026-04-26 04:30 31.92660 -121.06483 30025 ft 424 kts 224°
2026-04-26 04:31 31.87983 -121.10656 30013 ft 425 kts 224°
2026-04-26 04:31 31.83279 -121.14842 30010 ft 423 kts 224°
2026-04-26 04:32 31.78579 -121.19020 30015 ft 423 kts 225°
2026-04-26 04:32 31.73892 -121.23182 30012 ft 422 kts 225°
2026-04-26 04:33 31.69209 -121.27335 30015 ft 422 kts 225°
2026-04-26 04:33 31.64524 -121.31487 30021 ft 421 kts 225°
2026-04-26 04:34 31.59895 -121.35605 30020 ft 418 kts 227°
2026-04-26 04:34 31.55881 -121.40394 30028 ft 409 kts 236°
2026-04-26 04:35 31.52465 -121.45699 30026 ft 406 kts 243°
2026-04-26 04:35 31.49593 -121.51417 30019 ft 406 kts 244°
2026-04-26 04:36 31.46741 -121.57127 30017 ft 405 kts 244°
2026-04-26 04:36 31.43888 -121.62804 30031 ft 404 kts 244°
2026-04-26 04:37 31.41023 -121.68477 30025 ft 405 kts 244°
2026-04-26 04:37 31.38167 -121.74118 30027 ft 405 kts 243°
2026-04-26 04:38 31.35286 -121.79795 30031 ft 405 kts 243°
2026-04-26 04:38 31.32411 -121.85453 30031 ft 404 kts 243°
2026-04-26 04:39 31.29533 -121.91108 30030 ft 404 kts 243°
2026-04-26 04:39 31.26655 -121.96758 30029 ft 404 kts 243°
2026-04-26 04:40 31.23774 -122.02402 30031 ft 404 kts 243°
2026-04-26 04:40 31.20913 -122.08000 30034 ft 404 kts 243°
2026-04-26 04:41 31.18029 -122.13635 30028 ft 404 kts 243°
2026-04-26 04:41 31.15150 -122.19253 30033 ft 403 kts 243°
2026-04-26 04:42 31.12268 -122.24866 30036 ft 404 kts 243°
2026-04-26 04:42 31.09370 -122.30505 30039 ft 405 kts 243°
2026-04-26 04:43 31.06475 -122.36127 30036 ft 403 kts 243°
2026-04-26 04:43 31.03608 -122.41689 30033 ft 403 kts 243°
2026-04-26 04:44 31.00720 -122.47283 30041 ft 403 kts 243°
2026-04-26 04:44 30.97827 -122.52879 30032 ft 403 kts 243°
2026-04-26 04:45 30.94930 -122.58475 30042 ft 403 kts 243°
2026-04-26 04:45 30.92024 -122.64078 30048 ft 404 kts 243°
2026-04-26 04:46 30.89119 -122.69674 30045 ft 403 kts 243°
2026-04-26 04:46 30.86231 -122.75227 30047 ft 404 kts 243°
2026-04-26 04:47 30.83318 -122.80821 30047 ft 404 kts 243°
2026-04-26 04:47 30.80403 -122.86411 30045 ft 404 kts 243°
2026-04-26 04:48 30.76017 -122.94807 30046 ft 405 kts 243°
2026-04-26 04:48 30.73103 -123.00377 30048 ft 406 kts 243°
2026-04-26 04:49 30.70169 -123.05978 30048 ft 405 kts 243°
2026-04-26 04:49 30.67232 -123.11574 30053 ft 405 kts 243°
2026-04-26 04:50 30.64274 -123.17161 30056 ft 406 kts 243°
2026-04-26 04:50 30.61291 -123.22745 30056 ft 407 kts 243°
2026-04-26 04:51 30.58304 -123.28332 30053 ft 407 kts 243°
2026-04-26 04:51 30.55312 -123.33925 30049 ft 407 kts 243°
2026-04-26 04:52 30.52325 -123.39503 30055 ft 407 kts 243°
2026-04-26 04:52 30.49340 -123.45075 30058 ft 407 kts 243°
2026-04-26 04:53 30.46341 -123.50662 30061 ft 408 kts 243°
2026-04-26 04:53 30.43357 -123.56215 30060 ft 409 kts 243°
2026-04-26 04:54 30.40344 -123.61813 30059 ft 408 kts 243°
2026-04-26 04:54 30.37335 -123.67395 30060 ft 409 kts 243°
2026-04-26 04:55 30.34320 -123.72981 30062 ft 409 kts 243°
2026-04-26 04:55 30.31298 -123.78572 30057 ft 410 kts 243°
2026-04-26 04:56 30.28269 -123.84170 30056 ft 410 kts 243°
2026-04-26 04:56 30.25237 -123.89762 30057 ft 410 kts 243°
2026-04-26 04:57 30.22202 -123.95354 30061 ft 410 kts 243°
2026-04-26 04:57 30.19167 -124.00937 30062 ft 410 kts 242°
2026-04-26 04:58 30.16142 -124.06497 30064 ft 411 kts 242°
2026-04-26 04:58 30.13094 -124.12088 30064 ft 411 kts 242°
2026-04-26 04:59 30.10041 -124.17682 30062 ft 411 kts 242°
2026-04-26 04:59 30.06985 -124.23273 30061 ft 411 kts 242°
2026-04-26 05:00 30.03924 -124.28865 30065 ft 412 kts 242°
2026-04-26 05:00 30.00855 -124.34466 30065 ft 413 kts 242°
2026-04-26 05:01 29.97795 -124.40041 30068 ft 413 kts 242°
2026-04-26 05:01 29.94721 -124.45632 30069 ft 413 kts 242°
2026-04-26 05:02 29.91645 -124.51222 30063 ft 413 kts 242°
2026-04-26 05:02 29.89061 -124.55911 30072 ft 414 kts 242°
2026-04-26 05:03 29.85993 -124.61472 30068 ft 414 kts 242°
2026-04-26 05:03 29.82894 -124.67079 30068 ft 414 kts 242°
2026-04-26 05:04 29.79800 -124.72671 30063 ft 414 kts 242°
2026-04-26 05:04 29.76704 -124.78259 30068 ft 414 kts 242°
2026-04-26 05:05 29.73604 -124.83846 30069 ft 414 kts 242°
2026-04-26 05:05 29.70499 -124.89436 30081 ft 415 kts 242°
2026-04-26 05:06 29.67384 -124.95034 30073 ft 416 kts 242°
2026-04-26 05:06 29.64263 -125.00636 30068 ft 416 kts 242°
2026-04-26 05:07 29.61132 -125.06249 30073 ft 416 kts 242°
2026-04-26 05:07 29.58018 -125.11823 30077 ft 416 kts 242°
2026-04-26 05:08 29.54885 -125.17423 30074 ft 416 kts 242°
2026-04-26 05:08 29.51746 -125.23025 30074 ft 417 kts 242°
2026-04-26 05:09 29.48607 -125.28623 30077 ft 417 kts 242°
2026-04-26 05:09 29.45457 -125.34229 30079 ft 418 kts 242°
2026-04-26 05:10 29.42309 -125.39826 30076 ft 417 kts 242°
2026-04-26 05:10 29.39163 -125.45410 30075 ft 417 kts 242°
2026-04-26 05:11 29.36028 -125.50971 30079 ft 419 kts 241°
2026-04-26 05:11 29.32858 -125.56583 30077 ft 419 kts 241°
2026-04-26 05:12 29.29681 -125.62201 30089 ft 420 kts 241°
2026-04-26 05:12 29.26507 -125.67803 30078 ft 419 kts 241°
2026-04-26 05:13 29.23327 -125.73411 30084 ft 420 kts 241°
2026-04-26 05:13 29.20143 -125.79019 30077 ft 421 kts 241°
2026-04-26 05:14 29.16967 -125.84604 30088 ft 421 kts 241°
2026-04-26 05:14 29.13766 -125.90227 30087 ft 422 kts 241°
2026-04-26 05:15 29.10555 -125.95857 30085 ft 422 kts 241°
2026-04-26 05:15 29.07343 -126.01484 30087 ft 423 kts 241°
2026-04-26 05:16 29.04121 -126.07119 30083 ft 423 kts 241°
2026-04-26 05:16 29.00894 -126.12755 30089 ft 423 kts 241°
2026-04-26 05:17 28.97662 -126.18392 30088 ft 424 kts 241°
2026-04-26 05:17 28.94449 -126.23991 30085 ft 425 kts 241°
2026-04-26 05:18 28.91208 -126.29628 30098 ft 424 kts 241°
2026-04-26 05:18 28.87963 -126.35265 30096 ft 425 kts 241°
2026-04-26 05:19 28.84712 -126.40907 30100 ft 425 kts 241°
2026-04-26 05:19 28.81458 -126.46545 30096 ft 425 kts 241°
2026-04-26 05:20 28.78216 -126.52153 30092 ft 426 kts 241°
2026-04-26 05:20 28.74956 -126.57788 30102 ft 426 kts 240°
2026-04-26 05:21 28.71689 -126.63425 30104 ft 427 kts 240°
2026-04-26 05:21 28.68411 -126.69075 30098 ft 427 kts 240°
2026-04-26 05:22 28.65127 -126.74727 30102 ft 428 kts 240°
2026-04-26 05:22 28.61835 -126.80385 30105 ft 428 kts 240°
2026-04-26 05:23 28.58557 -126.86011 30102 ft 429 kts 240°
2026-04-26 05:23 28.55261 -126.91661 30099 ft 428 kts 240°
2026-04-26 05:24 28.51964 -126.97306 30103 ft 429 kts 240°
2026-04-26 05:24 28.48658 -127.02957 30104 ft 430 kts 240°
2026-04-26 05:25 28.45341 -127.08621 30102 ft 430 kts 240°
2026-04-26 05:25 28.42042 -127.14246 30110 ft 430 kts 240°
2026-04-26 05:26 28.38714 -127.19912 30107 ft 431 kts 240°
2026-04-26 05:26 28.35387 -127.25570 30106 ft 431 kts 240°
2026-04-26 05:27 28.32052 -127.31235 30100 ft 431 kts 240°
2026-04-26 05:27 28.28717 -127.36890 30100 ft 431 kts 240°
2026-04-26 05:28 28.25394 -127.42518 30113 ft 432 kts 240°
2026-04-26 05:28 28.22043 -127.48187 30107 ft 433 kts 240°
2026-04-26 05:29 28.18684 -127.53862 30106 ft 432 kts 240°
2026-04-26 05:29 28.15348 -127.59489 30104 ft 433 kts 240°
2026-04-26 05:30 28.11983 -127.65159 30110 ft 433 kts 240°
2026-04-26 05:30 28.08615 -127.70826 30110 ft 433 kts 240°
2026-04-26 05:31 28.05248 -127.76484 30111 ft 433 kts 240°
2026-04-26 05:31 28.01876 -127.82142 30114 ft 434 kts 240°
2026-04-26 05:32 27.98495 -127.87809 30110 ft 435 kts 240°
2026-04-26 05:32 27.95112 -127.93472 30111 ft 434 kts 240°
2026-04-26 05:33 27.91725 -127.99133 30117 ft 435 kts 240°
2026-04-26 05:33 27.88346 -128.04775 30126 ft 436 kts 240°
2026-04-26 05:34 27.84941 -128.10452 30105 ft 435 kts 240°
2026-04-26 05:34 27.81540 -128.16114 30116 ft 436 kts 240°
2026-04-26 05:35 27.78130 -128.21784 30126 ft 436 kts 240°
2026-04-26 05:35 27.74715 -128.27456 30118 ft 436 kts 240°
2026-04-26 05:36 27.71297 -128.33125 30119 ft 437 kts 239°
2026-04-26 05:36 27.67876 -128.38792 30116 ft 437 kts 239°
2026-04-26 05:37 27.64474 -128.44418 30117 ft 437 kts 239°
2026-04-26 05:37 27.61046 -128.50083 30118 ft 438 kts 239°
2026-04-26 05:38 27.57605 -128.55759 30116 ft 437 kts 239°
2026-04-26 05:38 27.54168 -128.61424 30124 ft 438 kts 239°
2026-04-26 05:39 27.50722 -128.67096 30119 ft 439 kts 239°
2026-04-26 05:39 27.47294 -128.72729 30117 ft 438 kts 239°
2026-04-26 05:40 27.43839 -128.78400 30121 ft 439 kts 239°
2026-04-26 05:40 27.40379 -128.84073 30123 ft 440 kts 239°
2026-04-26 05:41 27.36909 -128.89754 30122 ft 441 kts 239°
2026-04-26 05:41 27.33455 -128.95401 30121 ft 440 kts 239°
2026-04-26 05:42 27.29983 -129.01071 30125 ft 441 kts 239°
2026-04-26 05:42 27.26501 -129.06750 30117 ft 441 kts 239°
2026-04-26 05:43 27.23016 -129.12427 30126 ft 441 kts 239°
2026-04-26 05:43 27.19525 -129.18106 30124 ft 441 kts 239°
2026-04-26 05:44 27.16037 -129.23772 30124 ft 441 kts 239°
2026-04-26 05:44 27.12542 -129.29444 30126 ft 441 kts 239°
2026-04-26 05:45 27.09063 -129.35080 30125 ft 442 kts 239°
2026-04-26 05:45 27.05560 -129.40752 30129 ft 443 kts 239°
2026-04-26 05:46 27.02045 -129.46434 30125 ft 444 kts 239°
2026-04-26 05:46 26.98519 -129.52124 30127 ft 443 kts 239°
2026-04-26 05:47 26.95001 -129.57796 30129 ft 443 kts 239°
2026-04-26 05:47 26.91494 -129.63443 30128 ft 443 kts 239°
2026-04-26 05:48 26.87967 -129.69115 30131 ft 444 kts 239°
2026-04-26 05:48 26.84431 -129.74795 30128 ft 444 kts 239°
2026-04-26 05:49 26.79111 -129.83328 30135 ft 445 kts 239°
2026-04-26 05:50 26.75584 -129.88974 30130 ft 445 kts 239°
2026-04-26 05:50 26.72038 -129.94644 30121 ft 445 kts 239°
2026-04-26 05:51 26.68487 -130.00316 30134 ft 445 kts 239°
2026-04-26 05:51 26.65509 -130.05067 30133 ft 445 kts 239°
2026-04-26 05:52 26.61967 -130.10710 30132 ft 446 kts 239°
2026-04-26 05:52 26.58403 -130.16381 30137 ft 446 kts 239°
2026-04-26 05:53 26.54838 -130.22049 30141 ft 446 kts 239°
2026-04-26 05:53 26.51260 -130.27729 30135 ft 447 kts 238°
2026-04-26 05:54 26.47679 -130.33405 30137 ft 447 kts 238°
2026-04-26 05:54 26.44117 -130.39046 30135 ft 448 kts 238°
2026-04-26 05:55 26.40528 -130.44722 30141 ft 448 kts 238°
2026-04-26 05:55 26.36932 -130.50402 30139 ft 448 kts 238°
2026-04-26 05:56 26.33336 -130.56075 30137 ft 448 kts 238°
2026-04-26 05:56 26.29729 -130.61758 30140 ft 449 kts 238°
2026-04-26 05:57 26.26117 -130.67442 30143 ft 449 kts 238°
2026-04-26 05:57 26.22503 -130.73122 30138 ft 449 kts 238°
2026-04-26 05:58 26.18884 -130.78803 30142 ft 450 kts 238°
2026-04-26 05:58 26.15256 -130.84493 30143 ft 451 kts 238°
2026-04-26 05:59 26.11621 -130.90184 30141 ft 450 kts 238°
2026-04-26 05:59 26.07987 -130.95867 30142 ft 451 kts 238°
2026-04-26 06:00 26.04366 -131.01523 30141 ft 452 kts 238°
2026-04-26 06:00 26.00714 -131.07222 30142 ft 452 kts 238°
2026-04-26 06:01 25.97058 -131.12917 30141 ft 452 kts 238°
2026-04-26 06:01 25.93404 -131.18604 30139 ft 452 kts 238°
2026-04-26 06:02 25.89743 -131.24295 30139 ft 453 kts 238°
2026-04-26 06:02 25.86075 -131.29989 30139 ft 453 kts 238°
2026-04-26 06:03 25.82411 -131.35670 30147 ft 453 kts 238°
2026-04-26 06:03 25.78745 -131.41347 30147 ft 453 kts 238°
2026-04-26 06:04 25.75070 -131.47033 30143 ft 454 kts 238°
2026-04-26 06:04 25.71386 -131.52724 30147 ft 454 kts 238°
2026-04-26 06:05 25.67722 -131.58378 30143 ft 455 kts 238°
2026-04-26 06:05 25.64031 -131.64066 30148 ft 454 kts 238°
2026-04-26 06:06 25.60342 -131.69745 30147 ft 454 kts 238°
2026-04-26 06:06 25.56645 -131.75428 30148 ft 455 kts 238°
2026-04-26 06:07 25.52938 -131.81121 30146 ft 455 kts 238°
2026-04-26 06:07 25.49235 -131.86801 30148 ft 455 kts 238°
2026-04-26 06:08 25.45526 -131.92482 30145 ft 455 kts 238°
2026-04-26 06:08 25.41813 -131.98165 30148 ft 456 kts 238°
2026-04-26 06:09 25.38118 -132.03812 30152 ft 455 kts 238°
2026-04-26 06:09 25.34399 -132.09490 30151 ft 456 kts 238°
2026-04-26 06:10 25.30676 -132.15167 30145 ft 456 kts 238°
2026-04-26 06:10 25.26945 -132.20848 30145 ft 456 kts 237°
2026-04-26 06:11 25.23213 -132.26523 30146 ft 457 kts 237°
2026-04-26 06:11 25.19497 -132.32168 30145 ft 457 kts 237°
2026-04-26 06:12 25.15747 -132.37862 30145 ft 458 kts 237°
2026-04-26 06:12 25.11997 -132.43547 30146 ft 457 kts 237°
2026-04-26 06:13 25.08246 -132.49228 30146 ft 457 kts 237°
2026-04-26 06:13 25.04495 -132.54903 30148 ft 458 kts 237°
2026-04-26 06:14 25.00763 -132.60542 30145 ft 458 kts 237°
2026-04-26 06:14 24.97004 -132.66215 30143 ft 459 kts 237°
2026-04-26 06:15 24.93238 -132.71891 30155 ft 459 kts 237°
2026-04-26 06:15 24.89461 -132.77578 30145 ft 459 kts 237°
2026-04-26 06:16 24.85687 -132.83253 30145 ft 459 kts 237°
2026-04-26 06:16 24.81905 -132.88933 30142 ft 459 kts 237°
2026-04-26 06:17 24.78149 -132.94568 30149 ft 459 kts 237°
2026-04-26 06:17 24.74364 -133.00239 30148 ft 460 kts 237°
2026-04-26 06:18 24.70577 -133.05908 30148 ft 460 kts 237°
2026-04-26 06:18 24.66786 -133.11576 30147 ft 460 kts 237°
2026-04-26 06:19 24.62986 -133.17250 30145 ft 461 kts 237°
2026-04-26 06:19 24.59176 -133.22933 30142 ft 461 kts 237°
2026-04-26 06:20 24.55374 -133.28596 30145 ft 461 kts 237°
2026-04-26 06:20 24.51563 -133.34267 30142 ft 461 kts 237°
2026-04-26 06:21 24.47751 -133.39932 30147 ft 461 kts 237°
2026-04-26 06:21 24.43950 -133.45575 30146 ft 462 kts 237°
2026-04-26 06:22 24.40130 -133.51240 30143 ft 462 kts 237°
2026-04-26 06:22 24.36298 -133.56917 30140 ft 462 kts 237°
2026-04-26 06:23 24.32465 -133.62586 30142 ft 462 kts 237°
2026-04-26 06:23 24.28656 -133.68215 30139 ft 462 kts 237°
2026-04-26 06:24 24.24817 -133.73881 30148 ft 463 kts 237°
2026-04-26 06:24 24.20976 -133.79545 30143 ft 463 kts 236°
2026-04-26 06:25 24.17126 -133.85214 30143 ft 464 kts 236°
2026-04-26 06:25 24.13276 -133.90877 30134 ft 463 kts 236°
2026-04-26 06:26 24.09425 -133.96535 30142 ft 464 kts 236°
2026-04-26 06:26 24.05588 -134.02167 30139 ft 464 kts 236°
2026-04-26 06:27 24.01726 -134.07828 30137 ft 464 kts 236°
2026-04-26 06:27 23.97861 -134.13488 30137 ft 464 kts 236°
2026-04-26 06:28 23.93997 -134.19139 30132 ft 464 kts 236°
2026-04-26 06:28 23.90135 -134.24782 30139 ft 464 kts 236°
2026-04-26 06:29 23.86265 -134.30429 30132 ft 464 kts 236°
2026-04-26 06:29 23.82388 -134.36081 30137 ft 465 kts 236°
2026-04-26 06:30 23.78509 -134.41729 30131 ft 465 kts 236°
2026-04-26 06:30 23.74628 -134.47372 30143 ft 465 kts 236°
2026-04-26 06:31 23.70742 -134.53017 30128 ft 465 kts 236°
2026-04-26 06:31 23.66877 -134.58626 30144 ft 465 kts 236°
2026-04-26 06:32 23.62984 -134.64268 30134 ft 466 kts 236°
2026-04-26 06:32 23.59080 -134.69922 30371 ft 466 kts 236°
2026-04-26 06:32 23.57137 -134.72731 30771 ft 462 kts 236°
2026-04-26 06:33 23.55210 -134.75515 31227 ft 457 kts 236°
2026-04-26 06:33 23.53305 -134.78266 31671 ft 453 kts 236°
2026-04-26 06:33 23.51413 -134.80998 32045 ft 450 kts 236°
2026-04-26 06:34 23.47643 -134.86440 32114 ft 449 kts 236°
2026-04-26 06:34 23.43872 -134.91879 32124 ft 450 kts 236°
2026-04-26 06:35 23.40120 -134.97283 32134 ft 450 kts 236°
2026-04-26 06:35 23.36340 -135.02720 32130 ft 450 kts 236°
2026-04-26 06:36 23.32564 -135.08147 32129 ft 450 kts 236°
2026-04-26 06:36 23.28787 -135.13569 32133 ft 450 kts 236°
2026-04-26 06:37 23.25003 -135.18993 32132 ft 450 kts 236°
2026-04-26 06:37 23.21856 -135.23503 32129 ft 450 kts 236°
2026-04-26 06:38 23.18071 -135.28920 32136 ft 450 kts 236°
2026-04-26 06:38 23.14288 -135.34328 32115 ft 450 kts 236°
2026-04-26 06:39 23.10494 -135.39746 32131 ft 450 kts 236°
2026-04-26 06:39 23.06698 -135.45161 32132 ft 450 kts 235°